GW0126 Weather Reports


time (UTC)temp
F
wind
direction
speed
knots
gust
knots
rain 1hr
in
rain 24hr
in
rain mn
in
humidity
%
barometer
mb
20260505035801 55 174 0.0 0.0 0.00 0.00 0.00 95 1010.5
20260505035247 55 178 0.9 0.9 0.00 0.00 0.00 95 1010.4
20260505034818 55 177 0.0 0.9 0.00 0.00 0.00 94 1010.2
20260505033207 55 176 0.0 0.9 0.00 0.00 0.00 93 1010.2
20260505032147 56 177 0.0 0.0 0.00 0.00 0.00 92 1010.5
20260505031637 56 179 0.0 0.9 0.00 0.00 0.00 91 1010.6
20260505031127 56 175 0.0 0.0 0.00 0.00 0.00 90 1010.5
20260505030620 56 170 0.0 0.9 0.00 0.00 0.00 89 1010.7
20260505030111 56 177 0.0 0.0 0.00 0.00 0.00 88 1010.8
20260505025600 56 174 0.0 0.9 0.00 0.00 0.00 88 1010.9
20260505025125 57 173 0.0 0.9 0.00 0.00 0.00 87 1010.6
20260505024537 57 170 0.0 0.0 0.00 0.00 0.00 86 1011.0
20260505024027 57 169 0.0 0.0 0.00 0.00 0.00 86 1010.9
20260505022936 57 175 0.0 0.0 0.00 0.00 0.00 86 1010.9
20260505022504 57 175 0.0 0.9 0.00 0.00 0.00 86 1011.0
20260505021919 57 182 0.0 0.0 0.00 0.00 0.00 86 1011.0
20260505021410 57 177 0.0 0.9 0.00 0.00 0.00 85 1011.2
20260505020859 57 179 0.0 0.0 0.00 0.00 0.00 85 1010.8
20260505020346 57 179 0.0 0.0 0.00 0.00 0.00 85 1010.9
20260505015836 57 192 0.0 0.9 0.00 0.00 0.00 85 1011.1
20260505015326 57 177 0.9 0.9 0.00 0.00 0.00 85 1011.2
20260505014748 57 191 0.0 0.9 0.00 0.00 0.00 85 1011.0
20260505014235 57 176 0.0 0.9 0.00 0.00 0.00 85 1011.2
20260505013215 57 154 0.0 0.9 0.00 0.00 0.00 85 1011.5
20260505012155 57 91 0.9 1.7 0.00 0.00 0.00 85 1011.2
20260505011648 57 188 0.0 0.0 0.00 0.00 0.00 85 1010.8
20260505011213 57 183 0.0 0.0 0.00 0.00 0.00 85 1010.8
20260505010625 57 187 0.0 1.7 0.00 0.00 0.00 85 1010.9
20260505005643 57 198 0.0 0.0 0.00 0.00 0.00 84 1010.9
20260505005055 57 193 0.0 0.0 0.00 0.00 0.00 84 1011.0
20260505003525 57 229 0.0 0.0 0.00 0.00 0.00 84 1011.2
20260505001955 57 226 0.0 0.0 0.00 0.00 0.00 84 1011.3
20260505001445 57 226 0.0 0.0 0.00 0.00 0.00 84 1011.5
20260504235443 57 212 0.0 0.0 0.00 0.00 0.00 84 1011.6
20260504234855 57 207 0.0 0.9 0.00 0.00 0.00 84 1011.5
20260504234507 57 208 0.0 0.0 0.00 0.00 0.00 84 1011.4
20260504233835 57 212 0.0 0.0 0.00 0.00 0.00 84 1011.5
20260504233325 57 213 0.0 0.0 0.00 0.00 0.00 84 1011.5
20260504232853 57 214 0.0 0.0 0.00 0.00 0.00 84 1011.4
20260504232343 57 213 0.0 0.0 0.00 0.00 0.00 85 1011.3
20260504231755 57 218 0.0 0.0 0.00 0.00 0.00 85 1011.5
20260504231248 56 215 0.0 0.0 0.00 0.00 0.00 86 1011.6
20260504230735 56 215 0.0 0.0 0.00 0.00 0.00 86 1011.8
20260504230225 56 215 0.0 0.0 0.00 0.00 0.00 86 1011.7
20260504225715 56 215 0.0 0.0 0.00 0.00 0.00 86 1011.8
20260504225205 56 215 0.0 0.0 0.00 0.00 0.00 86 1011.8
20260504224820 56 214 0.0 0.0 0.00 0.00 0.00 86 1011.8
20260504223716 56 214 0.0 0.0 0.00 0.00 0.00 86 1011.9
20260504222615 56 214 0.0 0.0 0.00 0.00 0.00 85 1012.1
20260504221123 57 213 0.0 0.0 0.00 0.00 0.00 84 1012.0
20260504220534 57 212 0.0 0.0 0.00 0.00 0.00 84 1011.9
20260504220024 57 220 0.0 0.9 0.00 0.00 0.00 84 1012.1
20260504215005 58 220 0.0 0.0 0.00 0.00 0.00 83 1012.1
20260504213945 58 218 0.0 0.0 0.00 0.00 0.00 82 1012.2
20260504213434 58 212 0.0 0.0 0.00 0.00 0.00 81 1012.1
20260504212924 59 210 0.0 0.0 0.00 0.00 0.00 80 1011.9
20260504212415 59 204 0.0 0.0 0.00 0.00 0.00 79 1012.1
20260504211355 60 218 0.0 0.0 0.00 0.00 0.00 78 1012.2
20260504210844 60 218 0.0 0.9 0.00 0.00 0.00 78 1012.3
20260504205824 60 215 0.0 0.0 0.00 0.00 0.00 77 1012.3
20260504205314 61 217 0.0 0.0 0.00 0.00 0.00 76 1012.3
20260504204843 61 218 0.0 0.0 0.00 0.00 0.00 76 1012.2
20260504204254 61 245 0.0 0.9 0.00 0.00 0.00 75 1012.1
20260504203744 61 218 0.0 0.0 0.00 0.00 0.00 75 1012.1
20260504202724 61 216 0.0 0.0 0.00 0.00 0.00 75 1012.3
20260504202214 61 207 0.0 0.0 0.00 0.00 0.00 74 1012.2
20260504201704 62 207 0.0 0.0 0.00 0.00 0.00 74 1012.4
20260504201232 62 217 0.0 0.0 0.00 0.00 0.00 74 1012.1
20260504200645 62 218 0.0 0.0 0.00 0.00 0.00 74 1012.1
20260504200135 62 215 0.0 0.0 0.00 0.00 0.00 74 1011.9
20260504194054 63 201 0.0 0.0 0.00 0.00 0.00 72 1012.1
20260504193544 63 201 0.0 0.0 0.00 0.00 0.00 71 1012.2
20260504192014 64 206 0.0 0.9 0.00 0.00 0.00 71 1012.2
20260504191504 64 202 0.0 0.0 0.00 0.00 0.00 71 1011.9
20260504185937 65 202 0.0 0.0 0.00 0.00 0.00 69 1011.8
20260504185424 66 202 0.0 0.0 0.00 0.00 0.00 68 1012.0
20260504184914 66 202 0.0 0.0 0.00 0.00 0.00 67 1011.9
20260504183344 66 202 0.0 0.0 0.00 0.00 0.00 68 1011.7
20260504182913 67 202 0.0 0.0 0.00 0.00 0.00 67 1011.8
20260504182450 67 202 0.0 0.0 0.00 0.00 0.00 67 1012.0
20260504181814 67 201 0.0 0.0 0.00 0.00 0.00 66 1011.8
20260504181304 67 201 0.0 0.0 0.00 0.00 0.00 65 1011.9
20260504180754 68 202 0.0 0.0 0.00 0.00 0.00 64 1011.8
20260504175812 68 214 0.0 0.9 0.00 0.00 0.00 62 1011.7
20260504175304 68 170 0.0 0.0 0.00 0.00 0.00 62 1011.7
20260504174714 68 215 0.0 0.9 0.00 0.00 0.00 61 1011.6
20260504174204 69 194 0.0 0.9 0.00 0.00 0.00 60 1011.6
20260504173654 69 54 0.0 0.9 0.00 0.00 0.00 59 1011.6
20260504173144 69 192 0.0 1.7 0.00 0.00 0.00 59 1011.4
20260504172634 69 199 0.0 0.9 0.00 0.00 0.00 59 1011.6
20260504172202 69 175 0.0 2.6 0.00 0.00 0.00 59 1011.7
20260504171614 70 204 0.9 1.7 0.00 0.00 0.00 59 1011.7
20260504170554 70 118 0.9 1.7 0.00 0.00 0.00 60 1011.4
20260504170122 70 212 0.0 0.0 0.00 0.00 0.00 60 1011.6
20260504150609 71 194 0.0 1.7 0.00 0.00 0.00 58 1011.8
20260504140943 72 213 0.9 0.9 0.00 0.00 0.00 54 1011.9
20260504140433 73 56 0.9 1.7 0.00 0.00 0.00 53 1012.2
20260504110343 68 210 0.9 0.9 0.00 0.00 0.00 67 1012.6
20260504081313 69 109 1.7 3.5 0.00 0.00 0.00 64 1012.8
20260504080803 69 208 4.3 6.1 0.00 0.00 0.00 64 1012.6
20260504080330 69 68 0.9 2.6 0.00 0.00 0.00 65 1012.6
20260504050240 56 165 0.0 0.0 0.00 0.00 0.00 88 1011.5
20260504045652 56 165 0.0 0.0 0.00 0.00 0.00 88 1011.3